Location: Croisilles
(50.1998°N, 2.8793°E)
Time: 13:05:19
(UTC+00:00)

CZ-2C R/B - Pass Details

Date: 21 January 2021
Orbit: 785 x 870 km, 98.2° (Epoch: 27 February)

Event Time Altitude Azimuth Distance (km) Brightness Sun altitude
Exits shadow 19:08:11 62° 139° (SE) 968 2.7 -25.8°
Drops below altitude 10° 19:13:08 10° 185° (S) 2,506 5.2 -26.6°
Sets 19:15:32 0° 188° (S) 3,443 6.0 -27.0°
